• în Republica Moldova
  • Lista ţărilor
  • Pe 7 zile
  • Temperatura apei
  • Hartă satelitară
  • Meteo pe hartă
  • Widget-uri
  • user-avatar
    Intrare

    Meteo pe oră la Prutz

    Astăzi, 22 August, Marţi

    Timp Temperatura Precipitaţii Vânt Presiune Umiditate
    00:00 +7°C° 0 mm 1 m/s 637 mmHg 88%
    01:00 +7°C° 0 mm 1 m/s 637 mmHg 88%
    02:00 +7°C° 0 mm 1 m/s 637 mmHg 88%
    03:00 +7°C° 0 mm 1 m/s 636 mmHg 88%
    04:00 +7°C° 0 mm 1 m/s 636 mmHg 87%
    05:00 +8°C° 0 mm 1 m/s 637 mmHg 82%
    06:00 +9°C° 0 mm 1 m/s 637 mmHg 78%
    07:00 +11°C° 0 mm 1 m/s 638 mmHg 71%
    08:00 +13°C° 0 mm 1 m/s 639 mmHg 64%
    09:00 +16°C° 0 mm 1 m/s 639 mmHg 58%
    10:00 +19°C° 0 mm 1 m/s 640 mmHg 52%
    11:00 +20°C° 0 mm 1 m/s 640 mmHg 49%
    12:00 +19°C° 0 mm 2 m/s 640 mmHg 47%
    13:00 +20°C° 0 mm 2 m/s 639 mmHg 48%
    14:00 +19°C° 0 mm 2 m/s 639 mmHg 49%
    15:00 +19°C° 0 mm 2 m/s 639 mmHg 51%
    16:00 +19°C° 0 mm 2 m/s 639 mmHg 52%
    17:00 +17°C° 0 mm 2 m/s 638 mmHg 63%
    18:00 +15°C° 0 mm 2 m/s 637 mmHg 73%
    19:00 +13°C° 0 mm 1 m/s 637 mmHg 84%
    20:00 +12°C° 0 mm 1 m/s 636 mmHg 88%
    21:00 +11°C° 0 mm 1 m/s 636 mmHg 91%
    22:00 +10°C° 0 mm 1 m/s 636 mmHg 94%
    23:00 +10°C° 0 mm 1 m/s 636 mmHg 93%

    Mâine, 23 August, Miercuri

    Timp Temperatura Precipitaţii Vânt Presiune Umiditate
    00:00 +10°C° 0 mm 1 m/s 636 mmHg 91%
    01:00 +10°C° 0 mm 1 m/s 636 mmHg 89%
    02:00 +9°C° 0 mm 1 m/s 635 mmHg 86%
    03:00 +9°C° 0 mm 1 m/s 635 mmHg 83%
    04:00 +9°C° 0 mm 1 m/s 635 mmHg 80%
    05:00 +10°C° 0 mm 1 m/s 636 mmHg 76%
    06:00 +12°C° 0 mm 1 m/s 636 mmHg 72%
    07:00 +13°C° 0 mm 1 m/s 637 mmHg 68%
    08:00 +16°C° 0 mm 1 m/s 637 mmHg 59%
    09:00 +19°C° 0 mm 1 m/s 638 mmHg 50%
    10:00 +21°C° 0 mm 1 m/s 639 mmHg 42%
    11:00 +21°C° 0,1 mm 2 m/s 639 mmHg 40%
    12:00 +21°C° 0,1 mm 2 m/s 639 mmHg 39%
    13:00 +23°C° 0,1 mm 2 m/s 639 mmHg 38%
    14:00 +23°C° 0,3 mm 2 m/s 639 mmHg 39%
    15:00 +23°C° 0,3 mm 2 m/s 639 mmHg 40%
    16:00 +23°C° 0,3 mm 2 m/s 639 mmHg 40%
    17:00 +20°C° 0,1 mm 2 m/s 638 mmHg 50%
    18:00 +17°C° 0,1 mm 2 m/s 637 mmHg 61%
    19:00 +15°C° 0,1 mm 1 m/s 637 mmHg 71%
    20:00 +14°C° 0 mm 1 m/s 637 mmHg 73%
    21:00 +13°C° 0 mm 1 m/s 637 mmHg 74%
    22:00 +12°C° 0 mm 1 m/s 637 mmHg 76%
    23:00 +12°C° 0 mm 1 m/s 637 mmHg 74%

    Poimâine, 24 August, Joi

    Timp Temperatura Precipitaţii Vânt Presiune Umiditate
    00:00 +12°C° 0 mm 1 m/s 637 mmHg 72%
    01:00 +12°C° 0 mm 1 m/s 637 mmHg 70%
    02:00 +11°C° 0 mm 1 m/s 636 mmHg 69%
    03:00 +11°C° 0 mm 1 m/s 636 mmHg 68%
    04:00 +11°C° 0 mm 1 m/s 636 mmHg 67%
    05:00 +13°C° 0 mm 1 m/s 637 mmHg 65%
    06:00 +14°C° 0 mm 1 m/s 637 mmHg 63%
    07:00 +15°C° 0 mm 1 m/s 638 mmHg 61%
    08:00 +18°C° 0 mm 1 m/s 639 mmHg 55%
    09:00 +21°C° 0 mm 1 m/s 639 mmHg 48%
    10:00 +23°C° 0 mm 1 m/s 640 mmHg 42%
    11:00 +23°C° 0,1 mm 1 m/s 640 mmHg 41%
    12:00 +24°C° 0,1 mm 1 m/s 640 mmHg 40%
    13:00 +25°C° 0,1 mm 1 m/s 640 mmHg 39%
    14:00 +23°C° 0,7 mm 1 m/s 640 mmHg 48%
    15:00 +22°C° 0,7 mm 1 m/s 639 mmHg 57%
    16:00 +21°C° 0,7 mm 1 m/s 639 mmHg 66%
    17:00 +19°C° 1,3 mm 1 m/s 638 mmHg 73%
    18:00 +18°C° 1,3 mm 1 m/s 638 mmHg 80%
    19:00 +15°C° 1,3 mm 1 m/s 638 mmHg 87%
    20:00 +14°C° 0,2 mm 1 m/s 638 mmHg 87%
    21:00 +14°C° 0,2 mm 1 m/s 638 mmHg 87%
    22:00 +13°C° 0,2 mm 2 m/s 638 mmHg 87%
    23:00 +13°C° 0 mm 2 m/s 638 mmHg 87%

    25 August, Vineri

    Timp Temperatura Precipitaţii Vânt Presiune Umiditate
    00:00 +12°C° 0 mm 2 m/s 638 mmHg 86%
    01:00 +12°C° 0 mm 2 m/s 637 mmHg 86%
    02:00 +12°C° 0 mm 2 m/s 637 mmHg 85%
    03:00 +12°C° 0 mm 2 m/s 637 mmHg 85%
    04:00 +10°C° 0 mm 2 m/s 637 mmHg 84%
    05:00 +13°C° 0 mm 2 m/s 637 mmHg 81%
    06:00 +14°C° 0 mm 1 m/s 638 mmHg 79%
    07:00 +15°C° 0 mm 1 m/s 638 mmHg 76%
    08:00 +18°C° 0 mm 1 m/s 639 mmHg 65%
    09:00 +21°C° 0 mm 1 m/s 640 mmHg 55%
    10:00 +21°C° 0 mm 0 m/s 641 mmHg 44%
    11:00 +24°C° 0 mm 1 m/s 641 mmHg 42%
    12:00 +25°C° 0 mm 1 m/s 641 mmHg 39%
    13:00 +26°C° 0 mm 1 m/s 641 mmHg 37%
    14:00 +25°C° 0,1 mm 1 m/s 640 mmHg 40%
    15:00 +25°C° 0,1 mm 1 m/s 640 mmHg 44%
    16:00 +24°C° 0,1 mm 2 m/s 640 mmHg 47%
    17:00 +22°C° 0,4 mm 1 m/s 639 mmHg 58%
    18:00 +20°C° 0,4 mm 1 m/s 639 mmHg 69%
    19:00 +16°C° 0,4 mm 0 m/s 638 mmHg 80%
    20:00 +18°C° 0,5 mm 1 m/s 638 mmHg 80%
    21:00 +16°C° 0,5 mm 1 m/s 638 mmHg 80%
    22:00 +16°C° 0,5 mm 2 m/s 638 mmHg 80%
    23:00 +15°C° 0,1 mm 2 m/s 638 mmHg 80%

    26 August, Sâmbătă

    Timp Temperatura Precipitaţii Vânt Presiune Umiditate
    00:00 +15°C° 0,1 mm 2 m/s 638 mmHg 79%
    01:00 +15°C° 0,1 mm 2 m/s 638 mmHg 79%
    02:00 +15°C° 0,1 mm 2 m/s 638 mmHg 78%
    03:00 +14°C° 0,1 mm 2 m/s 637 mmHg 78%
    04:00 +14°C° 0,1 mm 1 m/s 637 mmHg 78%
    05:00 +15°C° 0 mm 1 m/s 637 mmHg 76%
    06:00 +16°C° 0 mm 1 m/s 638 mmHg 74%
    07:00 +18°C° 0 mm 1 m/s 638 mmHg 72%
    08:00 +20°C° 0,1 mm 1 m/s 639 mmHg 63%
    09:00 +22°C° 0,1 mm 1 m/s 639 mmHg 55%
    10:00 +24°C° 0,1 mm 1 m/s 640 mmHg 46%
    11:00 +25°C° 0,1 mm 1 m/s 640 mmHg 44%
    12:00 +26°C° 0,1 mm 1 m/s 640 mmHg 41%
    13:00 +26°C° 0,1 mm 1 m/s 640 mmHg 39%
    14:00 +26°C° 0,2 mm 1 m/s 640 mmHg 42%
    15:00 +25°C° 0,2 mm 1 m/s 639 mmHg 44%
    16:00 +25°C° 0,2 mm 1 m/s 639 mmHg 47%
    17:00 +23°C° 0,3 mm 1 m/s 639 mmHg 56%
    18:00 +21°C° 0,3 mm 1 m/s 638 mmHg 65%
    19:00 +19°C° 0,3 mm 1 m/s 637 mmHg 74%
    20:00 +18°C° 0,3 mm 1 m/s 637 mmHg 74%
    21:00 +16°C° 0,3 mm 1 m/s 638 mmHg 74%
    22:00 +16°C° 0,3 mm 1 m/s 638 mmHg 74%
    23:00 +15°C° 0,1 mm 2 m/s 637 mmHg 74%

    27 August, Duminică

    Timp Temperatura Precipitaţii Vânt Presiune Umiditate
    00:00 +15°C° 0,1 mm 2 m/s 637 mmHg 73%
    01:00 +15°C° 0,1 mm 2 m/s 637 mmHg 73%
    02:00 +14°C° 0 mm 2 m/s 637 mmHg 72%
    03:00 +14°C° 0 mm 2 m/s 636 mmHg 72%
    04:00 +14°C° 0 mm 1 m/s 636 mmHg 71%
    05:00 +15°C° 0 mm 1 m/s 637 mmHg 70%
    06:00 +16°C° 0 mm 1 m/s 637 mmHg 69%
    07:00 +18°C° 0 mm 1 m/s 638 mmHg 68%
    08:00 +20°C° 0 mm 1 m/s 638 mmHg 59%
    09:00 +22°C° 0 mm 1 m/s 639 mmHg 51%
    10:00 +24°C° 0 mm 1 m/s 640 mmHg 43%
    11:00 +25°C° 0,1 mm 1 m/s 639 mmHg 42%
    12:00 +25°C° 0,1 mm 1 m/s 639 mmHg 41%
    13:00 +26°C° 0,1 mm 1 m/s 639 mmHg 40%
    14:00 +25°C° 0,3 mm 1 m/s 639 mmHg 43%
    15:00 +25°C° 0,3 mm 1 m/s 639 mmHg 46%
    16:00 +24°C° 0,3 mm 1 m/s 638 mmHg 49%
    17:00 +22°C° 0,8 mm 1 m/s 638 mmHg 59%
    18:00 +20°C° 0,8 mm 1 m/s 637 mmHg 69%
    19:00 +18°C° 0,8 mm 1 m/s 637 mmHg 79%
    20:00 +18°C° 0,7 mm 1 m/s 637 mmHg 81%
    21:00 +16°C° 0,7 mm 1 m/s 637 mmHg 83%
    22:00 +15°C° 0,7 mm 1 m/s 637 mmHg 85%
    23:00 +15°C° 0,2 mm 1 m/s 637 mmHg 85%
    Arată mai mult